| time (UTC) | temp C | wind direction | speed KPH | gust KPH | rain 1hr cm | rain 24hr cm | rain mn cm | humidity % | barometer mb |
| 20260906191447 | 21 | 274 | 4.8 | 14.5 | 0.00 | 0.05 | 0.00 | 81 | 1017.7 |
| 20260906190950 | 21 | 269 | 6.4 | 14.5 | 0.00 | 0.05 | 0.00 | 81 | 1017.7 |
| 20260906190453 | 21 | 275 | 9.7 | 14.5 | 0.00 | 0.05 | 0.00 | 81 | 1017.7 |
| 20260906185459 | 21 | 278 | 11.3 | 19.3 | 0.00 | 0.05 | 0.00 | 79 | 1017.8 |
| 20260906185002 | 22 | 292 | 11.3 | 17.7 | 0.00 | 0.05 | 0.00 | 77 | 1017.9 |
| 20260906182517 | 22 | 286 | 11.3 | 20.9 | 0.00 | 0.05 | 0.00 | 75 | 1017.9 |
| 20260906182020 | 22 | 294 | 11.3 | 20.9 | 0.00 | 0.05 | 0.00 | 75 | 1017.8 |
| 20260906181523 | 22 | 269 | 9.7 | 16.1 | 0.00 | 0.05 | 0.00 | 76 | 1017.8 |
| 20260906181026 | 22 | 273 | 9.7 | 16.1 | 0.00 | 0.05 | 0.00 | 76 | 1017.8 |
| 20260906175536 | 22 | 280 | 6.4 | 11.3 | 0.00 | 0.05 | 0.00 | 78 | 1017.9 |
| 20260906174541 | 21 | 292 | 6.4 | 11.3 | 0.00 | 0.05 | 0.00 | 78 | 1017.7 |
| 20260906174044 | 21 | 304 | 4.8 | 9.7 | 0.00 | 0.05 | 0.00 | 78 | 1017.8 |
| 20260906173548 | 21 | 271 | 6.4 | 9.7 | 0.00 | 0.05 | 0.00 | 78 | 1017.7 |
| 20260906172626 | 21 | 281 | 4.8 | 9.7 | 0.00 | 0.05 | 0.00 | 78 | 1017.7 |
| 20260906172553 | 21 | 281 | 4.8 | 9.7 | 0.00 | 0.05 | 0.00 | 78 | 1017.7 |
| 20260906172056 | 21 | 286 | 4.8 | 9.7 | 0.00 | 0.05 | 0.00 | 79 | 1017.7 |
| 20260906171559 | 21 | 275 | 4.8 | 9.7 | 0.00 | 0.05 | 0.00 | 79 | 1017.7 |
| 20260906171102 | 21 | 271 | 6.4 | 12.9 | 0.00 | 0.05 | 0.00 | 79 | 1017.6 |
| 20260906170605 | 21 | 264 | 6.4 | 12.9 | 0.00 | 0.05 | 0.00 | 79 | 1017.6 |
| 20260906165611 | 21 | 266 | 4.8 | 12.9 | 0.00 | 0.05 | 0.00 | 80 | 1017.4 |
| 20260906165114 | 21 | 264 | 6.4 | 11.3 | 0.00 | 0.05 | 0.00 | 80 | 1017.2 |
| 20260906164617 | 20 | 275 | 4.8 | 14.5 | 0.00 | 0.05 | 0.00 | 82 | 1017.2 |
| 20260906164120 | 20 | 266 | 6.4 | 14.5 | 0.00 | 0.05 | 0.00 | 82 | 1017.1 |
| 20260906163623 | 20 | 269 | 8.0 | 19.3 | 0.00 | 0.05 | 0.00 | 82 | 1016.9 |
| 20260906162132 | 20 | 275 | 9.7 | 16.1 | 0.00 | 0.05 | 0.00 | 84 | 1016.9 |
| 20260906160641 | 20 | 270 | 8.0 | 14.5 | 0.00 | 0.05 | 0.00 | 84 | 1016.9 |
| 20260906160144 | 20 | 260 | 11.3 | 14.5 | 0.00 | 0.05 | 0.00 | 83 | 1016.9 |
| 20260906155647 | 20 | 254 | 9.7 | 14.5 | 0.00 | 0.05 | 0.00 | 83 | 1016.8 |
| 20260906155150 | 20 | 257 | 11.3 | 14.5 | 0.00 | 0.05 | 0.00 | 83 | 1016.8 |
| 20260906154156 | 20 | 261 | 8.0 | 14.5 | 0.00 | 0.05 | 0.00 | 84 | 1016.8 |
| 20260906153659 | 20 | 256 | 9.7 | 14.5 | 0.00 | 0.05 | 0.00 | 84 | 1016.7 |
| 20260906152208 | 20 | 265 | 9.7 | 16.1 | 0.00 | 0.05 | 0.00 | 84 | 1016.7 |
| 20260906150220 | 19 | 260 | 11.3 | 16.1 | 0.00 | 0.05 | 0.00 | 85 | 1016.7 |
| 20260906144232 | 19 | 249 | 8.0 | 16.1 | 0.00 | 0.05 | 0.00 | 84 | 1016.5 |
| 20260906143735 | 19 | 247 | 9.7 | 16.1 | 0.00 | 0.05 | 0.05 | 84 | 1016.6 |
| 20260906143309 | 19 | 239 | 11.3 | 16.1 | 0.00 | 0.05 | 0.05 | 84 | 1016.6 |
| 20260906143238 | 19 | 239 | 11.3 | 16.1 | 0.00 | 0.05 | 0.05 | 84 | 1016.6 |
| 20260906142741 | 18 | 247 | 9.7 | 16.1 | 0.00 | 0.05 | 0.05 | 85 | 1016.4 |
| 20260906142244 | 18 | 242 | 11.3 | 16.1 | 0.00 | 0.05 | 0.05 | 85 | 1016.3 |
| 20260906141747 | 18 | 241 | 11.3 | 14.5 | 0.00 | 0.05 | 0.05 | 85 | 1016.3 |
| 20260906141250 | 18 | 239 | 9.7 | 14.5 | 0.00 | 0.05 | 0.05 | 86 | 1016.2 |
| 20260906140753 | 18 | 241 | 8.0 | 14.5 | 0.00 | 0.05 | 0.05 | 86 | 1016.1 |
| 20260906140256 | 18 | 243 | 11.3 | 16.1 | 0.00 | 0.05 | 0.05 | 86 | 1016.1 |
| 20260906135759 | 18 | 242 | 11.3 | 16.1 | 0.00 | 0.05 | 0.05 | 87 | 1016.1 |
| 20260906135305 | 18 | 240 | 11.3 | 16.1 | 0.00 | 0.05 | 0.05 | 87 | 1016.0 |
| 20260906134805 | 18 | 243 | 9.7 | 16.1 | 0.00 | 0.05 | 0.05 | 87 | 1016.0 |
| 20260906134308 | 18 | 251 | 9.7 | 16.1 | 0.00 | 0.05 | 0.05 | 87 | 1015.9 |
| 20260906133811 | 18 | 250 | 11.3 | 19.3 | 0.00 | 0.05 | 0.05 | 88 | 1015.7 |
| 20260906133314 | 18 | 250 | 11.3 | 19.3 | 0.00 | 0.05 | 0.05 | 88 | 1015.7 |
| 20260906132903 | 18 | 247 | 14.5 | 19.3 | 0.00 | 0.05 | 0.05 | 88 | 1015.7 |
| 20260906132817 | 18 | 247 | 14.5 | 19.3 | 0.00 | 0.05 | 0.05 | 88 | 1015.7 |
| 20260906131823 | 18 | 255 | 11.3 | 17.7 | 0.00 | 0.05 | 0.05 | 89 | 1015.6 |
| 20260906130332 | 18 | 251 | 12.9 | 17.7 | 0.00 | 0.05 | 0.05 | 90 | 1015.6 |
| 20260906125835 | 18 | 247 | 9.7 | 17.7 | 0.00 | 0.05 | 0.05 | 90 | 1015.5 |
| 20260906125338 | 18 | 244 | 12.9 | 17.7 | 0.00 | 0.05 | 0.05 | 90 | 10.1 |
| 20260906124841 | 18 | 245 | 11.3 | 17.7 | 0.00 | 0.05 | 0.05 | 90 | 1015.4 |
| 20260906124344 | 18 | 248 | 11.3 | 17.7 | 0.00 | 0.05 | 0.05 | 90 | 1015.4 |
| 20260906123847 | 18 | 255 | 11.3 | 16.1 | 0.00 | 0.05 | 0.05 | 90 | 1015.6 |
| 20260906123350 | 18 | 260 | 9.7 | 17.7 | 0.00 | 0.05 | 0.05 | 90 | 1015.4 |
| 20260906122853 | 18 | 254 | 12.9 | 20.9 | 0.00 | 0.05 | 0.05 | 90 | 1015.4 |
| 20260906122356 | 18 | 259 | 14.5 | 20.9 | 0.00 | 0.05 | 0.05 | 90 | 1015.5 |
| 20260906121956 | 18 | 260 | 12.9 | 17.7 | 0.00 | 0.05 | 0.05 | 90 | 1015.4 |
| 20260906121859 | 18 | 260 | 12.9 | 17.7 | 0.00 | 0.05 | 0.05 | 90 | 1015.4 |
| 20260906121456 | 17 | 263 | 11.3 | 17.7 | 0.00 | 0.05 | 0.05 | 90 | 1015.5 |
| 20260906121402 | 17 | 263 | 11.3 | 17.7 | 0.00 | 0.05 | 0.05 | 90 | 1015.5 |
| 20260906120905 | 17 | 260 | 11.3 | 17.7 | 0.03 | 0.05 | 0.05 | 91 | 1015.5 |
| 20260906120408 | 17 | 257 | 12.9 | 17.7 | 0.03 | 0.05 | 0.05 | 91 | 1015.6 |
| 20260906115944 | 17 | 263 | 11.3 | 17.7 | 0.03 | 0.05 | 0.05 | 91 | 1015.6 |
| 20260906115911 | 17 | 263 | 11.3 | 17.7 | 0.03 | 0.05 | 0.05 | 91 | 1015.6 |
| 20260906115414 | 17 | 255 | 11.3 | 19.3 | 0.03 | 0.05 | 0.05 | 91 | 1015.7 |
| 20260906114954 | 17 | 263 | 12.9 | 19.3 | 0.05 | 0.05 | 0.05 | 91 | 1015.8 |
| 20260906114917 | 17 | 263 | 12.9 | 19.3 | 0.05 | 0.05 | 0.05 | 91 | 1015.8 |
| 20260906114420 | 17 | 269 | 9.7 | 17.7 | 0.05 | 0.05 | 0.05 | 91 | 1015.8 |
| 20260906113923 | 17 | 271 | 12.9 | 17.7 | 0.05 | 0.05 | 0.05 | 91 | 1015.9 |
| 20260906113426 | 17 | 268 | 11.3 | 20.9 | 0.05 | 0.05 | 0.05 | 91 | 1015.9 |
| 20260906112929 | 17 | 259 | 12.9 | 20.9 | 0.05 | 0.05 | 0.05 | 92 | 1016.0 |
| 20260906112432 | 16 | 260 | 14.5 | 20.9 | 0.05 | 0.05 | 0.05 | 91 | 1016.0 |
| 20260906111935 | 16 | 265 | 14.5 | 22.5 | 0.05 | 0.05 | 0.05 | 89 | 1015.9 |
| 20260906111438 | 16 | 276 | 14.5 | 24.1 | 0.05 | 0.05 | 0.05 | 87 | 1015.9 |
| 20260906110941 | 17 | 277 | 16.1 | 25.7 | 0.03 | 0.03 | 0.03 | 86 | 1015.8 |
| 20260906110444 | 17 | 272 | 16.1 | 25.7 | 0.03 | 0.03 | 0.03 | 85 | 1015.7 |
| 20260906105947 | 17 | 268 | 17.7 | 24.1 | 0.03 | 0.03 | 0.03 | 84 | 1015.8 |
| 20260906105450 | 17 | 267 | 16.1 | 24.1 | 0.03 | 0.03 | 0.03 | 84 | 1015.8 |
| 20260906104953 | 17 | 267 | 16.1 | 24.1 | 0.00 | 0.00 | 0.00 | 83 | 1015.8 |
| 20260906104456 | 17 | 263 | 16.1 | 19.3 | 0.00 | 0.00 | 0.00 | 83 | 1015.8 |
| 20260906103959 | 17 | 263 | 14.5 | 20.9 | 0.00 | 0.00 | 0.00 | 83 | 1015.8 |
| 20260906103502 | 17 | 260 | 12.9 | 20.9 | 0.00 | 0.00 | 0.00 | 82 | 1015.9 |
| 20260906102510 | 18 | 252 | 12.9 | 20.9 | 0.00 | 0.00 | 0.00 | ||
| 20260906102011 | 18 | 254 | 14.5 | 20.9 | 0.00 | 0.00 | 0.00 | 76 | 1015.9 |
| 20260906101515 | 18 | 267 | 12.9 | 20.9 | 0.00 | 0.00 | 0.00 | 75 | 1015.8 |
| 20260906101017 | 18 | 266 | 16.1 | 20.9 | 0.00 | 0.00 | 0.00 | 75 | 1015.8 |
| 20260906100520 | 18 | 260 | 14.5 | 20.9 | 0.00 | 0.00 | 0.00 | 76 | 1016.0 |
| 20260906100023 | 18 | 270 | 12.9 | 20.9 | 0.00 | 0.00 | 0.00 | 76 | 1015.9 |
| 20260906095526 | 18 | 267 | 9.7 | 20.9 | 0.00 | 0.00 | 0.00 | 74 | 1015.9 |
| 20260906094532 | 19 | 260 | 16.1 | 24.1 | 0.00 | 0.00 | 0.00 | 70 | 1015.9 |
| 20260906094035 | 19 | 258 | 11.3 | 22.5 | 0.00 | 0.00 | 0.00 | 69 | 1015.1 |
| 20260906093538 | 19 | 263 | 12.9 | 22.5 | 0.00 | 0.00 | 0.00 | 69 | 1015.1 |
| 20260906093041 | 20 | 259 | 14.5 | 22.5 | 0.00 | 0.00 | 0.00 | 69 | 1015.2 |
| 20260906092544 | 20 | 256 | 16.1 | 25.7 | 0.00 | 0.00 | 0.00 | 69 | 1015.1 |
| 20260906092047 | 20 | 258 | 16.1 | 25.7 | 0.00 | 0.00 | 0.00 | 69 | 1015.2 |
| 20260906091053 | 20 | 256 | 17.7 | 25.7 | 0.00 | 0.00 | 0.00 | 68 | 1015.3 |
| 20260906090556 | 20 | 258 | 14.5 | 24.1 | 0.00 | 0.00 | 0.00 | 68 | 1015.3 |
| 20260906090059 | 20 | 268 | 14.5 | 24.1 | 0.00 | 0.00 | 0.00 | 67 | 1015.4 |
| 20260906085637 | 20 | 271 | 11.3 | 22.5 | 0.00 | 0.00 | 0.00 | 66 | 1015.4 |
| 20260906085602 | 20 | 271 | 11.3 | 22.5 | 0.00 | 0.00 | 0.00 | 66 | 1015.4 |
| 20260906084608 | 20 | 257 | 14.5 | 25.7 | 0.00 | 0.00 | 0.00 | 65 | 1015.6 |
| 20260906083614 | 20 | 258 | 11.3 | 25.7 | 0.00 | 0.00 | 0.00 | 64 | 1015.6 |
| 20260906083117 | 20 | 256 | 17.7 | 25.7 | 0.00 | 0.00 | 0.00 | 64 | 1015.7 |
| 20260906082620 | 20 | 258 | 12.9 | 22.5 | 0.00 | 0.00 | 0.00 | 64 | 1015.7 |
| 20260906082123 | 20 | 270 | 12.9 | 22.5 | 0.00 | 0.00 | 0.00 | 65 | 1015.6 |
| 20260906081626 | 20 | 261 | 12.9 | 20.9 | 0.00 | 0.00 | 0.00 | 65 | 1015.6 |
| 20260906081129 | 20 | 265 | 12.9 | 22.5 | 0.00 | 0.00 | 0.00 | 65 | 1015.6 |
| 20260906080632 | 20 | 253 | 16.1 | 22.5 | 0.00 | 0.00 | 0.00 | 65 | 1015.9 |
| 20260906080135 | 20 | 261 | 14.5 | 20.9 | 0.00 | 0.00 | 0.00 | 65 | 1015.9 |
| 20260906075638 | 20 | 269 | 11.3 | 17.7 | 0.00 | 0.00 | 0.00 | 66 | 1016.0 |
| 20260906075141 | 20 | 260 | 12.9 | 17.7 | 0.00 | 0.00 | 0.00 | 66 | 1016.0 |
| 20260906073153 | 20 | 257 | 12.9 | 20.9 | 0.00 | 0.00 | 0.00 | 65 | 1016.2 |
| 20260906072159 | 20 | 245 | 14.5 | 19.3 | 0.00 | 0.00 | 0.00 | 65 | 1016.3 |
| 20260906071702 | 20 | 248 | 12.9 | 17.7 | 0.00 | 0.00 | 0.00 | 65 | 1016.4 |
| 20260906070708 | 20 | 253 | 12.9 | 17.7 | 0.00 | 0.00 | 0.00 | 66 | 1016.3 |
| 20260906070211 | 20 | 257 | 11.3 | 19.3 | 0.00 | 0.00 | 0.00 | 66 | 1016.4 |
| 20260906065714 | 20 | 246 | 11.3 | 19.3 | 0.00 | 0.00 | 0.00 | 66 | 1016.4 |
| 20260906065217 | 20 | 248 | 9.7 | 17.7 | 0.00 | 0.00 | 0.00 | 66 | 1016.3 |
| 20260906064720 | 20 | 246 | 11.3 | 17.7 | 0.00 | 0.00 | 0.00 | 66 | 1016.4 |
| 20260906064223 | 20 | 245 | 11.3 | 16.1 | 0.00 | 0.00 | 0.00 | 66 | 1016.4 |
| 20260906063726 | 20 | 249 | 11.3 | 16.1 | 0.00 | 0.00 | 0.00 | 66 | 1016.3 |
| 20260906063229 | 20 | 244 | 9.7 | 16.1 | 0.00 | 0.00 | 0.00 | 66 | 1016.3 |
| 20260906062732 | 20 | 251 | 11.3 | 17.7 | 0.00 | 0.00 | 0.00 | 66 | 1016.2 |
| 20260906062235 | 20 | 247 | 11.3 | 17.7 | 0.00 | 0.00 | 0.00 | 66 | 1016.1 |
| 20260906061241 | 20 | 241 | 11.3 | 17.7 | 0.00 | 0.00 | 0.00 | 65 | 1016.2 |
| 20260906060744 | 20 | 249 | 11.3 | 17.7 | 0.00 | 0.00 | 0.00 | 65 | 1016.2 |
| 20260906060321 | 20 | 243 | 12.9 | 17.7 | 0.00 | 0.00 | 0.00 | 65 | 1016.3 |
| 20260906060247 | 20 | 243 | 12.9 | 17.7 | 0.00 | 0.00 | 0.00 | 65 | 1016.3 |
| 20260906055750 | 20 | 247 | 12.9 | 17.7 | 0.00 | 0.00 | 0.00 | 65 | 1016.4 |
| 20260906055253 | 20 | 245 | 11.3 | 17.7 | 0.00 | 0.00 | 0.00 | 65 | 1016.5 |
| 20260906054756 | 20 | 249 | 9.7 | 17.7 | 0.00 | 0.00 | 0.00 | 64 | 1016.4 |
| 20260906054259 | 20 | 257 | 9.7 | 16.1 | 0.00 | 0.00 | 0.00 | 65 | 1016.6 |
| 20260906053802 | 20 | 263 | 8.0 | 16.1 | 0.00 | 0.00 | 0.00 | 64 | 1016.5 |
| 20260906053305 | 20 | 264 | 9.7 | 16.1 | 0.00 | 0.00 | 0.00 | 64 | 1016.5 |
| 20260906052808 | 20 | 250 | 11.3 | 16.1 | 0.00 | 0.00 | 0.00 | 65 | 1016.5 |
| 20260906052311 | 20 | 256 | 11.3 | 17.7 | 0.00 | 0.00 | 0.00 | 64 | 1016.5 |
| 20260906051317 | 20 | 261 | 12.9 | 19.3 | 0.00 | 0.00 | 0.00 | 64 | 1016.5 |
| 20260906050820 | 20 | 258 | 11.3 | 19.3 | 0.00 | 0.00 | 0.00 | 64 | 1016.6 |
| 20260906050323 | 20 | 260 | 12.9 | 19.3 | 0.00 | 0.00 | 0.00 | 64 | 1016.6 |
| 20260906045329 | 20 | 262 | 11.3 | 19.3 | 0.00 | 0.00 | 0.00 | 64 | 1016.5 |
| 20260906044832 | 20 | 260 | 12.9 | 19.3 | 0.00 | 0.00 | 0.00 | 64 | 1016.6 |
| 20260906043838 | 20 | 267 | 9.7 | 17.7 | 0.00 | 0.00 | 0.00 | 65 | 1016.6 |
| 20260906043341 | 20 | 260 | 11.3 | 17.7 | 0.00 | 0.00 | 0.00 | 65 | 1016.7 |
| 20260906042347 | 20 | 257 | 11.3 | 19.3 | 0.00 | 0.00 | 0.00 | 65 | 1016.7 |
| 20260906041850 | 20 | 258 | 9.7 | 17.7 | 0.00 | 0.00 | 0.00 | 63 | 1016.7 |
| 20260906041353 | 20 | 263 | 9.7 | 17.7 | 0.00 | 0.00 | 0.00 | 63 | 1016.6 |
| 20260906040856 | 20 | 265 | 12.9 | 20.9 | 0.00 | 0.00 | 0.00 | 63 | 1016.6 |
| 20260906040359 | 20 | 259 | 11.3 | 20.9 | 0.00 | 0.00 | 0.00 | 63 | 1016.6 |
| 20260906035902 | 20 | 257 | 12.9 | 19.3 | 0.00 | 0.00 | 0.00 | 62 | 1016.5 |
| 20260906035405 | 20 | 264 | 11.3 | 22.5 | 0.00 | 0.00 | 0.00 | 61 | 1016.4 |
| 20260906034908 | 20 | 284 | 12.9 | 22.5 | 0.00 | 0.00 | 0.00 | 60 | 1016.3 |
| 20260906034411 | 20 | 262 | 11.3 | 20.9 | 0.00 | 0.00 | 0.00 | 61 | 1016.4 |
| 20260906033914 | 20 | 262 | 11.3 | 22.5 | 0.00 | 0.00 | 0.00 | 60 | 1016.3 |
| 20260906033417 | 20 | 277 | 12.9 | 22.5 | 0.00 | 0.00 | 0.00 | 60 | 1016.1 |
| 20260906032920 | 20 | 268 | 11.3 | 19.3 | 0.00 | 0.00 | 0.00 | 59 | 1016.1 |
| 20260906032423 | 20 | 266 | 12.9 | 19.3 | 0.00 | 0.00 | 0.00 | 59 | 1016.1 |
| 20260906031926 | 20 | 278 | 9.7 | 19.3 | 0.00 | 0.00 | 0.00 | 59 | 1016.2 |
| 20260906031429 | 21 | 280 | 11.3 | 19.3 | 0.00 | 0.00 | 0.00 | 59 | 1016.0 |
| 20260906030932 | 21 | 273 | 12.9 | 19.3 | 0.00 | 0.00 | 0.00 | 59 | 1016.0 |
| 20260906030435 | 21 | 261 | 14.5 | 19.3 | 0.00 | 0.00 | 0.00 | 59 | 1016.0 |
| 20260906025442 | 21 | 269 | 14.5 | 25.7 | 0.00 | 0.00 | 0.00 | 58 | 1015.7 |
| 20260906024944 | 21 | 267 | 11.3 | 20.9 | 0.00 | 0.00 | 0.00 | 58 | 1015.8 |
| 20260906024447 | 21 | 266 | 14.5 | 22.5 | 0.00 | 0.00 | 0.00 | 57 | 1015.8 |
| 20260906023950 | 21 | 280 | 16.1 | 22.5 | 0.00 | 0.00 | 0.00 | 57 | 1015.8 |
| 20260906022956 | 21 | 274 | 11.3 | 22.5 | 0.00 | 0.00 | 0.00 | 56 | 1015.8 |
| 20260906022459 | 21 | 280 | 12.9 | 22.5 | 0.00 | 0.00 | 0.00 | 56 | 1015.8 |
| 20260906022002 | 22 | 285 | 14.5 | 22.5 | 0.00 | 0.00 | 0.00 | 55 | 1015.8 |
| 20260906015517 | 22 | 258 | 14.5 | 32.2 | 0.00 | 0.00 | 0.00 | 54 | 1015.9 |
| 20260906014026 | 23 | 277 | 14.5 | 27.4 | 0.00 | 0.00 | 0.00 | 51 | 1015.9 |
| 20260906013529 | 24 | 283 | 14.5 | 24.1 | 0.00 | 0.00 | 0.00 | 50 | 1016.0 |
| 20260906012535 | 24 | 259 | 11.3 | 22.5 | 0.00 | 0.00 | 0.00 | 50 | 1016.2 |
| 20260906012038 | 24 | 242 | 16.1 | 22.5 | 0.00 | 0.00 | 0.00 | 50 | 1016.3 |
| 20260906011044 | 25 | 269 | 9.7 | 30.6 | 0.00 | 0.00 | 0.00 | 49 | 1016.2 |
| 20260906005553 | 25 | 289 | 17.7 | 27.4 | 0.00 | 0.00 | 0.00 | 48 | 1016.1 |
| 20260906005130 | 20 | 276 | 14.5 | 25.7 | 0.00 | 0.00 | 0.00 | 47 | 1016.0 |
| 20260906005056 | -17 | 276 | 14.5 | 25.7 | 0.00 | 0.00 | 0.00 | 47 | 1016.0 |
| 20260906004559 | 26 | 261 | 11.3 | 25.7 | 0.00 | 0.00 | 0.00 | 47 | 1016.1 |
| 20260906004102 | 26 | 263 | 14.5 | 27.4 | 0.00 | 0.00 | 0.00 | 47 | 1016.1 |
| 20260906003605 | 26 | 267 | 17.7 | 27.4 | 0.00 | 0.00 | 0.00 | 48 | 1016.1 |
| 20260906003108 | 26 | 259 | 11.3 | 20.9 | 0.00 | 0.00 | 0.00 | 48 | 1016.2 |
| 20260906002114 | 25 | 264 | 14.5 | 27.4 | 0.00 | 0.00 | 0.00 | 48 | 1016.2 |
| 20260906001617 | 26 | 267 | 16.1 | 33.8 | 0.00 | 0.00 | 0.00 | 47 | 1016.1 |
| 20260906001120 | 26 | 267 | 20.9 | 33.8 | 0.00 | 0.00 | 0.00 | 46 | 1016.3 |
| 20260906000126 | 26 | 258 | 14.5 | 29.0 | 0.00 | 0.00 | 0.00 | 46 | 1016.2 |
| 20260905235629 | 26 | 259 | 11.3 | 27.4 | 0.00 | 0.00 | 0.00 | 46 | 1016.2 |
| 20260905235132 | 26 | 248 | 16.1 | 27.4 | 0.00 | 0.00 | 0.00 | 44 | 1016.2 |
| 20260905234712 | 26 | 277 | 14.5 | 29.0 | 0.00 | 0.00 | 0.00 | 43 | 1016.2 |
| 20260905234635 | 26 | 277 | 14.5 | 29.0 | 0.00 | 0.00 | 0.00 | 43 | 1016.2 |
| 20260905233641 | 27 | 255 | 16.1 | 32.2 | 0.00 | 0.00 | 0.00 | 42 | 1016.5 |
| 20260905233144 | 27 | 215 | 17.7 | 29.0 | 0.00 | 0.00 | 0.00 | 41 | 1016.4 |
| 20260905232647 | 27 | 277 | 14.5 | 30.6 | 0.00 | 0.00 | 0.00 | 40 | 1016.4 |
| 20260905231653 | 27 | 230 | 16.1 | 35.4 | 0.00 | 0.00 | 0.00 | 41 | 1016.3 |
| 20260905230659 | 27 | 247 | 11.3 | 32.2 | 0.00 | 0.00 | 0.00 | 42 | 1016.3 |
| 20260905230202 | 27 | 240 | 11.3 | 33.8 | 0.00 | 0.00 | 0.00 | 43 | 1016.3 |
| 20260905225208 | 27 | 241 | 12.9 | 35.4 | 0.00 | 0.00 | 0.00 | 43 | 1016.4 |
| 20260905224214 | 27 | 238 | 17.7 | 33.8 | 0.00 | 0.00 | 0.00 | 44 | 1016.4 |
| 20260905223717 | 26 | 245 | 14.5 | 33.8 | 0.00 | 0.00 | 0.00 | 46 | 1016.6 |
| 20260905223220 | 26 | 257 | 16.1 | 33.8 | 0.00 | 0.00 | 0.00 | 44 | 1016.5 |
| 20260905222226 | 26 | 261 | 24.1 | 38.6 | 0.00 | 0.00 | 0.00 | 42 | 1016.5 |
| 20260905221729 | 27 | 264 | 20.9 | 32.2 | 0.00 | 0.00 | 0.00 | 43 | 1016.5 |
| 20260905221232 | 27 | 262 | 17.7 | 30.6 | 0.00 | 0.00 | 0.00 | 43 | 1016.5 |
| 20260905220735 | 27 | 219 | 19.3 | 35.4 | 0.00 | 0.00 | 0.00 | 42 | 1016.6 |
| 20260905215741 | 27 | 244 | 17.7 | 33.8 | 0.00 | 0.00 | 0.00 | 43 | 1016.6 |
| 20260905215244 | 27 | 260 | 20.9 | 32.2 | 0.00 | 0.00 | 0.00 | 42 | 1016.7 |
| 20260905214747 | 27 | 234 | 20.9 | 32.2 | 0.00 | 0.00 | 0.00 | 43 | 1016.8 |
| 20260905214250 | 26 | 242 | 17.7 | 33.8 | 0.00 | 0.00 | 0.00 | 44 | 1016.8 |
| 20260905213753 | 25 | 240 | 11.3 | 33.8 | 0.00 | 0.00 | 0.00 | 45 | 1016.9 |
| 20260905213256 | 26 | 247 | 19.3 | 37.0 | 0.00 | 0.00 | 0.00 | 45 | 1017.1 |
| 20260905213205 | 26 | 262 | 24.1 | 38.6 | 0.00 | 0.00 | 0.00 | 42 | 1017.2 |
| 20260905212759 | 26 | 262 | 24.1 | 38.6 | 0.00 | 0.00 | 0.00 | 42 | 1017.2 |
| 20260905212305 | 27 | 233 | 19.3 | 38.6 | 0.00 | 0.00 | 0.00 | 42 | 1017.1 |
| 20260905211805 | 27 | 249 | 11.3 | 33.8 | 0.00 | 0.00 | 0.00 | 43 | 1017.1 |
| 20260905211308 | 27 | 236 | 20.9 | 37.0 | 0.00 | 0.00 | 0.00 | 42 | 1017.3 |
| 20260905210812 | 27 | 247 | 24.1 | 37.0 | 0.00 | 0.00 | 0.00 | 41 | 1017.3 |
| 20260905210314 | 27 | 267 | 22.5 | 35.4 | 0.00 | 0.00 | 0.00 | 41 | 1016.4 |
| 20260905205817 | 27 | 275 | 16.1 | 29.0 | 0.00 | 0.00 | 0.00 | 42 | 1016.4 |
| 20260905205320 | 27 | 265 | 16.1 | 33.8 | 0.00 | 0.00 | 0.00 | 43 | 1016.5 |
| 20260905204823 | 26 | 248 | 16.1 | 38.6 | 0.00 | 0.00 | 0.00 | 43 | 1016.5 |
| 20260905204326 | 26 | 248 | 17.7 | 38.6 | 0.00 | 0.00 | 0.00 | 44 | 1016.7 |
| 20260905203829 | 26 | 270 | 16.1 | 35.4 | 0.00 | 0.00 | 0.00 | 44 | 1016.8 |
| 20260905202835 | 26 | 266 | 20.9 | 41.8 | 0.00 | 0.00 | 0.00 | 43 | 1016.8 |
| 20260905202338 | 26 | 278 | 27.4 | 41.8 | 0.00 | 0.00 | 0.00 | 40 | 1016.8 |
| 20260905201841 | 26 | 234 | 11.3 | 32.2 | 0.00 | 0.00 | 0.00 | 42 | 1016.6 |
| 20260905200847 | 26 | 268 | 20.9 | 32.2 | 0.00 | 0.00 | 0.00 | 42 | 1016.8 |
| 20260905200350 | 26 | 271 | 17.7 | 32.2 | 0.00 | 0.00 | 0.00 | 43 | 1016.8 |
| 20260905195854 | 26 | 280 | 17.7 | 32.2 | 0.00 | 0.00 | 0.00 | 42 | 1016.7 |
| 20260905194859 | 26 | 268 | 19.3 | 35.4 | 0.00 | 0.00 | 0.00 | 40 | 1016.9 |
| 20260905194402 | 26 | 271 | 20.9 | 33.8 | 0.00 | 0.00 | 0.00 | 39 | 1017.0 |
| 20260905193905 | 26 | 277 | 17.7 | 35.4 | 0.00 | 0.00 | 0.00 | 37 | 1017.0 |
| 20260905193408 | 26 | 210 | 24.1 | 35.4 | 0.00 | 0.00 | 0.00 | 36 | 1017.2 |
| 20260905192911 | 26 | 275 | 24.1 | 35.4 | 0.00 | 0.00 | 0.00 | 35 | 1017.4 |
| 20260905191917 | 26 | 217 | 17.7 | 32.2 | 0.00 | 0.00 | 0.00 | 34 | 1017.4 |